Precipitable_Water
0.31 0.34 0.31 0.37 0.48 0.49 0.49 0.46 0.50 0.52 0.53 0.43 0.45 0.57 0.62 0.74 0.78 0.85 0.96 1.05 1.13 1.16 1.38 1.55 1.64 1.72 1.70 1.73 1.71 1.74 1.61 1.67 1.68 1.77 1.70 1.61 1.59 1.67 1.64 1.80 1.74 1.66 1.46 1.56
0.29 0.23 0.30 0.36 0.42 0.42 0.44 0.44 0.46 0.50 0.53 0.44 0.42 0.45 0.54 0.76 0.69 0.70 0.91 0.95 1.06 1.15 1.26 1.49 1.64 1.75 1.74 1.75 1.75 1.73 1.64 1.61 1.68 1.64 1.64 1.65 1.78 1.72 1.79 1.86 1.94 1.86 1.60 1.57
0.27 0.28 0.28 0.27 0.28 0.35 0.39 0.41 0.44 0.42 0.52 0.47 0.40 0.41 0.52 0.78 0.75 0.68 0.75 0.88 1.02 1.06 1.22 1.40 1.55 1.66 1.75 1.72 1.72 1.67 1.71 1.60 1.65 1.63 1.59 1.70 1.82 1.86 1.78 1.77 1.86 1.88 1.75 1.55
0.30 0.28 0.27 0.23 0.21 0.30 0.32 0.43 0.39 0.37 0.38 0.33 0.49 0.32 0.51 0.63 0.62 0.64 0.74 0.81 0.89 0.99 1.15 1.34 1.50 1.56 1.65 1.68 1.69 1.70 1.66 1.59 1.57 1.59 1.55 1.67 1.64 1.56 1.63 1.73 1.88 1.90 1.87 1.60
0.27 0.26 0.24 0.25 0.24 0.28 0.33 0.44 0.37 0.33 0.32 0.34 0.33 0.34 0.38 0.58 0.58 0.55 0.70 0.77 0.88 1.02 1.22 1.34 1.52 1.54 1.56 1.59 1.60 1.61 1.62 1.51 1.48 1.52 1.61 1.64 1.64 1.73 1.81 1.76 1.76 1.78 1.76 1.78
0.29 0.36 0.29 0.28 0.30 0.28 0.33 0.36 0.29 0.29 0.29 0.27 0.36 0.38 0.38 0.47 0.60 0.56 0.61 0.80 0.91 1.17 1.33 1.51 1.56 1.53 1.64 1.55 1.57 1.51 1.45 1.44 1.48 1.52 1.59 1.71 1.70 1.69 1.72 1.72 1.72 1.73 1.70 1.72
0.32 0.30 0.32 0.28 0.26 0.32 0.33 0.31 0.23 0.27 0.28 0.28 0.47 0.42 0.38 0.50 0.63 0.55 0.75 0.85 1.04 1.22 1.39 1.36 1.32 1.53 1.50 1.47 1.43 1.41 1.44 1.45 1.48 1.49 1.51 1.63 1.75 1.70 1.62 1.64 1.69 1.65 1.63 1.68
0.32 0.29 0.34 0.31 0.25 0.26 0.30 0.29 0.22 0.25 0.32 0.39 0.54 0.35 0.40 0.65 0.67 0.67 0.77 0.94 1.10 1.20 1.42 1.37 1.25 1.53 1.47 1.35 1.39 1.39 1.46 1.47 1.49 1.47 1.47 1.66 1.75 1.69 1.76 1.79 1.75 1.70 1.67 1.67
0.30 0.30 0.39 0.39 0.33 0.26 0.30 0.24 0.28 0.29 0.35 0.34 0.44 0.37 0.61 0.63 0.59 0.68 0.79 0.84 1.02 1.19 1.41 1.39 1.46 1.50 1.39 1.40 1.36 1.41 1.44 1.48 1.48 1.44 1.49 1.58 1.73 1.76 1.80 1.82 1.82 1.76 1.77 1.83
0.33 0.27 0.36 0.34 0.32 0.29 0.26 0.39 0.24 0.28 0.27 0.29 0.35 0.38 0.42 0.55 0.61 0.74 0.78 0.84 1.03 1.21 1.36 1.40 1.46 1.45 1.38 1.45 1.48 1.52 1.59 1.42 1.48 1.45 1.52 1.52 1.73 1.82 1.88 1.89 1.86 1.86 1.89 1.92
0.32 0.33 0.33 0.34 0.29 0.28 0.27 0.28 0.34 0.35 0.35 0.32 0.31 0.41 0.63 0.82 0.70 0.74 0.87 0.95 1.07 1.21 1.37 1.48 1.49 1.52 1.45 1.49 1.49 1.44 1.56 1.52 1.48 1.50 1.55 1.48 1.58 1.69 1.87 1.85 1.86 1.87 1.87 1.88
0.33 0.34 0.29 0.34 0.36 0.35 0.33 0.30 0.31 0.30 0.30 0.35 0.38 0.46 0.72 0.95 0.78 0.76 0.93 1.00 1.12 1.22 1.33 1.50 1.55 1.52 1.46 1.45 1.51 1.53 1.50 1.51 1.41 1.48 1.54 1.45 1.48 1.51 1.71 1.81 1.75 1.82 1.78 1.83
0.33 0.29 0.31 0.31 0.38 0.39 0.32 0.35 0.33 0.32 0.35 0.39 0.40 0.50 0.73 0.63 0.82 0.84 0.97 1.01 1.12 1.23 1.26 1.45 1.46 1.46 1.43 1.44 1.49 1.54 1.55 1.47 1.40 1.49 1.53 1.48 1.43 1.45 1.51 1.58 1.71 1.75 1.76 1.80
0.57 0.40 0.34 0.32 0.39 0.43 0.35 0.29 0.35 0.36 0.37 0.41 0.49 0.49 0.68 0.86 0.75 0.84 0.95 1.06 1.17 1.23 1.30 1.32 1.37 1.39 1.37 1.48 1.56 1.56 1.54 1.53 1.48 1.51 1.51 1.41 1.43 1.42 1.45 1.48 1.54 1.63 1.62 1.59
0.57 0.41 0.44 0.40 0.46 0.55 0.39 0.34 0.30 0.36 0.39 0.38 0.46 0.50 0.63 1.02 1.00 0.89 1.03 1.10 1.09 1.18 1.21 1.29 1.32 1.36 1.38 1.45 1.56 1.58 1.62 1.51 1.50 1.49 1.56 1.40 1.39 1.40 1.39 1.44 1.44 1.41 1.45 1.52
0.68 0.51 0.49 0.42 0.42 0.43 0.42 0.39 0.38 0.40 0.40 0.42 0.43 0.48 0.85 1.02 0.99 0.95 1.02 1.04 1.03 1.12 1.18 1.22 1.27 1.20 1.27 1.35 1.47 1.58 1.54 1.47 1.42 1.35 1.39 1.42 1.37 1.36 1.36 1.32 1.31 1.28 1.35 1.45
0.56 0.55 0.48 0.43 0.51 0.43 0.41 0.40 0.39 0.36 0.41 0.44 0.45 0.70 1.06 0.98 0.89 0.85 0.98 1.05 1.09 1.14 1.13 1.14 1.21 1.20 1.23 1.26 1.34 1.37 1.47 1.48 1.40 1.30 1.32 1.34 1.26 1.26 1.32 1.39 1.37 1.40 1.44 1.48
0.68 0.57 0.49 0.46 0.43 0.36 0.60 0.67 0.59 0.49 0.47 0.54 0.72 0.86 0.75 0.89 0.93 0.93 0.99 1.08 1.09 1.10 1.07 1.14 1.24 1.24 1.27 1.35 1.34 1.34 1.30 1.34 1.34 1.33 1.28 1.31 1.25 1.24 1.36 1.42 1.53 1.58 1.55 1.51
0.61 0.63 0.45 0.36 0.39 0.46 0.65 0.64 0.57 0.56 0.53 0.63 0.72 0.82 0.94 0.97 0.99 0.96 1.11 1.13 1.10 1.11 1.15 1.21 1.27 1.27 1.26 1.26 1.26 1.19 1.16 1.21 1.35 1.37 1.34 1.32 1.32 1.40 1.51 1.47 1.44 1.38 1.31 1.27
0.59 0.59 0.51 0.43 0.36 0.31 0.42 0.84 0.79 0.70 0.47 0.91 0.87 0.88 0.93 0.94 0.70 0.83 1.05 1.08 1.09 1.14 1.19 1.20 1.24 1.25 1.23 1.20 1.20 1.17 1.18 1.23 1.32 1.43 1.43 1.45 1.41 1.38 1.39 1.38 1.39 1.49 1.45 1.35
0.52 0.50 0.36 0.33 0.37 0.45 0.73 0.77 0.74 0.46 0.62 0.99 0.96 0.97 1.01 0.93 0.97 1.11 1.16 1.10 1.12 1.12 1.19 1.26 1.25 1.20 1.15 1.12 1.11 1.07 1.16 1.17 1.35 1.39 1.44 1.46 1.42 1.37 1.42 1.42 1.46 1.46 1.42 1.37
0.71 0.51 0.40 0.37 0.33 0.31 0.80 0.68 0.46 0.81 0.93 0.93 1.01 1.15 1.05 1.05 1.03 1.01 1.02 1.04 1.10 1.13 1.19 1.21 1.17 1.12 1.06 1.04 1.06 1.13 1.17 1.27 1.39 1.42 1.45 1.43 1.42 1.35 1.40 1.39 1.39 1.38 1.34 1.35
0.57 0.69 0.75 0.63 0.61 0.91 0.94 1.01 1.03 0.95 0.87 0.93 1.03 1.07 1.04 0.96 0.94 0.96 0.98 1.07 1.13 1.16 1.18 1.20 1.15 1.08 1.06 1.07 1.09 1.13 1.20 1.26 1.32 1.35 1.37 1.34 1.36 1.36 1.39 1.36 1.32 1.33 1.35 1.29
0.73 0.98 0.76 0.72 0.78 0.89 0.92 0.94 0.96 0.99 0.97 1.01 1.04 1.00 0.99 0.96 0.99 0.99 1.02 1.05 1.12 1.19 1.15 1.15 1.12 1.07 1.04 1.12 1.17 1.20 1.23 1.25 1.23 1.26 1.30 1.29 1.24 1.30 1.29 1.31 1.32 1.26 1.23 1.21
0.77 0.71 0.67 0.68 0.84 0.88 0.89 0.86 0.95 0.99 1.06 1.05 1.09 1.09 1.05 1.02 0.99 1.00 1.03 1.10 1.16 1.15 1.14 1.13 1.10 1.09 1.11 1.18 1.21 1.24 1.24 1.23 1.17 1.18 1.20 1.18 1.16 1.14 1.09 1.08 1.07 1.09 1.10 1.09
0.67 0.67 0.70 0.63 0.89 0.77 0.83 0.94 1.01 0.98 1.01 1.04 0.98 0.96 1.00 0.98 0.97 1.04 1.05 1.11 1.12 1.11 1.14 1.12 1.10 1.13 1.18 1.21 1.22 1.19 1.22 1.20 1.14 1.08 1.05 1.02 0.97 0.94 0.92 0.91 0.90 0.90 0.89 0.88
Wind_Speed
15 14 16 17 15 16 15 14 12 9 10 11 12 10 11 7 8 8 8 8 8 9 10 9 9 9 8 9 9 10 11 12 14 15 16 18 19 20 21 21 23 25 27 28
13 19 18 16 16 16 16 15 15 15 11 11 14 15 13 9 9 9 9 10 10 9 11 10 9 10 10 10 10 11 12 14 15 16 18 20 20 22 22 21 22 23 27 29
18 9 15 18 16 16 16 16 14 15 10 13 16 16 16 10 6 8 9 10 10 10 10 11 10 10 10 11 11 12 13 14 15 17 19 20 22 21 21 21 20 21 24 28
18 19 12 13 17 16 16 15 14 15 14 14 9 14 7 12 9 9 10 10 10 9 9 9 9 9 10 10 10 11 12 14 16 18 20 19 17 16 18 18 19 18 20 24
16 15 18 16 16 16 15 10 13 14 16 16 15 10 5 10 13 7 7 8 8 7 9 6 7 7 8 8 8 9 11 14 17 18 18 18 16 14 13 15 17 18 18 21
20 12 14 17 15 15 15 12 13 14 15 16 15 14 8 5 7 8 6 6 5 5 4 4 4 7 6 6 7 9 11 14 17 17 18 16 11 9 8 8 11 14 16 18
19 20 16 15 16 15 15 14 12 11 13 15 7 9 11 7 7 8 6 6 6 5 5 5 6 5 5 5 7 9 12 14 16 17 17 16 11 8 8 7 7 10 13 15
16 18 20 17 18 14 18 17 15 12 8 9 10 10 6 4 5 5 6 5 5 6 5 7 8 5 4 5 7 10 12 14 15 15 16 15 10 7 5 1 3 6 9 12
16 17 11 19 17 19 13 19 19 19 16 13 10 7 6 3 5 4 5 5 5 5 4 6 5 4 4 6 9 10 12 13 13 13 15 15 12 6 3 1 3 5 7 9
16 18 13 16 16 19 19 12 15 15 15 14 14 11 9 9 7 6 5 4 4 5 4 6 4 4 6 8 9 10 10 9 11 12 14 15 12 6 6 5 5 5 6 7
20 14 13 12 15 16 15 16 15 17 14 14 14 9 5 9 6 6 5 5 4 4 5 5 4 5 7 8 9 10 8 8 8 10 12 13 11 10 5 6 6 6 6 6
20 16 18 15 15 16 18 17 18 15 15 13 10 8 7 1 5 6 6 6 5 4 4 4 5 6 7 8 9 8 7 6 6 8 9 10 9 9 10 6 5 3 2 3
19 17 16 18 16 13 15 18 19 19 17 15 7 17 13 11 10 8 7 6 6 4 4 5 6 6 7 7 8 8 4 3 4 6 8 8 7 6 6 4 3 2 1 3
14 18 19 15 12 11 19 18 19 17 17 15 12 15 13 13 12 8 8 7 6 6 6 7 6 7 7 6 6 4 3 3 4 7 7 8 6 6 5 4 2 3 2 1
18 20 18 20 15 12 11 16 19 20 19 19 15 17 17 8 5 6 7 6 7 8 8 7 8 8 8 8 6 5 5 6 7 8 9 8 7 6 5 3 3 3 2 1
20 19 19 20 19 16 16 17 17 17 20 18 18 17 8 13 5 5 7 7 8 8 7 8 8 8 7 8 8 9 10 10 11 11 11 9 8 7 5 4 3 2 2 1
22 19 20 19 18 21 19 20 21 21 20 17 15 6 9 8 6 6 7 8 8 8 10 11 10 9 10 10 11 13 13 14 15 14 12 11 10 9 8 6 5 4 3 3
17 21 20 19 19 21 11 11 13 15 18 17 12 13 16 11 7 7 8 7 9 10 11 10 10 11 12 13 15 17 18 18 16 15 14 12 12 11 10 8 7 6 6 5
22 19 20 21 20 19 12 14 12 14 17 18 17 14 14 11 8 8 9 10 11 12 12 12 12 13 15 17 19 20 19 19 17 16 14 13 11 10 9 9 9 9 9 9
24 24 22 21 23 25 18 11 12 13 15 13 15 17 16 15 15 13 13 12 13 13 12 13 13 14 16 18 19 20 20 19 17 15 13 11 10 10 10 10 10 10 9 10
25 26 27 26 24 18 14 14 14 17 13 12 14 16 17 18 15 13 13 13 13 12 12 12 13 14 16 18 17 16 13 12 10 10 10 10 10 10 11 11 11 11 11 11
23 21 25 26 27 27 17 18 19 14 15 15 14 13 13 14 14 14 14 13 12 12 12 12 13 14 15 15 13 11 9 8 8 9 9 9 10 11 11 11 12 12 11 12
21 22 16 15 17 16 17 15 14 16 17 18 17 16 17 16 15 14 14 14 13 13 13 13 13 13 13 12 9 7 7 6 6 7 8 8 8 9 9 8 6 5 7 9
19 19 18 15 19 17 18 18 16 16 15 16 15 16 16 16 16 15 14 14 13 12 12 12 11 11 9 7 5 4 3 3 3 4 5 5 6 6 7 7 8 7 8 8
15 19 24 22 21 19 19 19 17 16 16 15 14 14 14 15 15 15 14 13 12 12 11 10 9 8 6 4 3 2 2 2 2 3 4 4 5 5 5 5 6 7 8 8
21 21 20 18 20 22 23 19 17 16 15 13 13 12 12 13 13 13 13 12 12 11 11 10 8 6 5 3 2 2 2 2 2 2 2 3 3 3 3 3 3 4 5 7
Wind_Direction
228 235 237 241 240 258 274 270 273 262 269 285 278 292 279 253 256 260 260 263 269 267 259 256 264 267 279 295 298 297 298 297 299 295 293 289 281 275 270 266 255 245 240 236
233 242 245 247 253 253 255 258 260 263 264 274 280 282 271 240 252 272 257 269 265 269 266 255 262 266 275 290 296 297 299 301 301 300 298 295 288 278 270 264 254 247 239 233
238 250 240 244 246 250 247 253 258 260 253 270 276 278 263 257 239 276 274 271 265 271 261 254 259 266 279 290 293 298 301 306 310 309 307 301 295 278 267 261 252 247 239 230
243 247 242 243 243 242 250 245 259 267 266 277 241 292 229 242 261 265 263 264 267 270 270 257 253 258 278 290 299 306 311 318 320 317 315 309 301 288 271 257 246 248 237 228
238 238 242 243 240 237 250 256 262 263 261 265 269 269 253 255 266 260 260 256 257 277 269 246 248 259 277 288 305 319 323 326 328 326 325 317 302 295 286 252 247 243 234 226
243 244 247 241 239 242 250 254 259 257 259 257 250 250 276 295 286 312 283 251 249 277 240 222 230 290 277 293 313 319 329 334 334 335 334 333 315 303 295 263 243 231 225 220
236 240 242 243 240 236 241 234 246 245 246 250 204 245 272 272 291 288 250 238 235 259 233 226 272 270 269 295 319 327 334 337 341 344 349 346 328 312 303 272 247 220 218 217
234 236 233 230 239 234 231 236 242 232 276 226 229 257 260 267 273 274 238 234 239 249 234 241 291 253 263 298 312 325 334 340 344 349 354 355 349 331 326 295 221 209 210 207
245 250 244 227 234 239 230 237 242 260 265 257 225 253 222 237 246 217 217 232 251 236 240 241 284 239 270 298 307 317 327 336 348 354 357 0 359 2 8 30 155 182 187 193
246 255 227 233 239 233 240 230 232 235 251 261 248 259 269 221 208 203 214 224 241 244 237 232 239 259 282 299 314 314 325 330 347 357 5 9 19 41 44 80 106 114 150 166
234 242 233 215 229 224 224 230 235 235 238 263 261 255 260 276 193 205 213 219 228 244 236 228 243 280 293 302 310 311 315 324 339 352 5 17 34 45 50 80 97 105 111 142
226 233 237 227 232 232 233 224 233 236 235 258 282 304 233 238 220 210 209 220 237 237 245 242 264 277 292 304 307 307 308 317 335 349 6 17 35 45 53 67 102 95 112 152
220 230 234 242 228 227 240 240 228 235 249 257 242 244 238 254 229 214 210 226 239 241 254 253 272 281 297 310 320 320 320 275 325 349 356 3 12 15 19 36 56 40 15 195
228 223 229 221 247 245 223 239 229 238 243 246 235 260 266 213 182 198 212 221 238 249 262 261 266 280 289 305 318 331 305 291 307 321 334 348 350 354 357 359 349 1 10 37
224 231 235 240 248 252 256 223 233 232 244 251 255 275 253 297 193 193 203 216 237 249 259 264 270 275 277 281 287 300 308 301 295 300 303 316 327 328 337 343 352 357 3 7
222 233 240 246 240 244 244 246 250 250 243 249 266 284 249 204 199 220 216 232 244 248 258 270 274 276 277 282 286 283 287 296 296 292 291 291 298 305 301 306 301 313 328 307
227 230 235 241 239 246 237 242 243 245 250 255 260 240 183 212 228 229 236 244 245 253 266 268 266 272 275 282 285 288 290 290 289 286 280 279 279 282 275 271 273 274 277 275
235 230 237 242 237 239 245 245 260 246 245 248 242 247 232 225 230 239 251 258 260 263 267 267 266 272 282 289 290 291 289 288 284 276 271 272 274 271 263 263 263 265 270 276
236 239 233 240 242 244 233 244 238 243 251 240 240 235 210 209 228 258 264 266 271 274 267 266 268 277 287 291 292 289 287 284 277 268 265 263 268 263 259 263 265 267 267 273
230 233 241 238 238 243 254 234 245 244 247 229 233 224 215 223 248 255 256 265 272 272 268 266 271 282 290 296 296 292 287 281 272 262 260 254 260 259 260 267 270 268 264 266
228 232 233 236 242 244 225 236 244 241 233 242 240 229 229 239 262 247 255 268 272 266 261 266 275 285 295 299 297 297 294 286 263 253 247 254 261 258 259 264 265 268 269 267
228 233 233 233 235 234 238 242 246 237 239 243 241 237 239 243 246 251 257 262 265 259 260 268 277 289 299 301 298 295 294 282 259 246 244 254 261 262 259 263 265 266 267 273
228 230 230 235 227 232 243 239 242 242 240 242 240 242 240 241 245 249 254 258 262 257 260 268 276 288 298 303 295 288 284 277 256 245 247 252 258 256 258 266 258 257 271 263
240 219 232 219 233 233 234 239 243 241 238 236 238 238 239 239 241 245 251 255 255 256 259 264 275 282 288 298 299 286 279 265 245 233 233 246 252 247 255 253 254 260 258 272
227 230 242 236 233 237 240 240 237 234 233 232 233 237 237 238 239 241 246 250 248 254 254 255 265 267 267 281 288 279 264 240 220 212 226 247 256 252 250 248 254 265 273 272
232 237 230 234 244 236 227 227 223 221 222 225 227 229 235 235 236 236 238 239 241 244 246 249 245 241 232 248 246 274 234 190 174 184 209 216 219 226 242 254 268 294 287 286